Location: Newark
(25.4297°S, 49.2719°W)
Time: 01:59:57
(UTC+00:00)

Explorer 11/Cluster Stage 4 - Visible Passes

Search period start: 19 November 2019 00:00
Search period end: 29 November 2019 00:00
Orbit: 467 x 1259 km, 28.8° (Epoch: 17 November)

Date Brightness Start Highest point End Pass type
(mag) Time Alt. Az. Time Alt. Az. Time Alt. Az.
19 Nov 9.4 06:54:31 10° NNE 06:56:29 11° NNE 06:58:25 10° NE visible
20 Nov 9.3 06:41:51 10° N 06:45:43 14° NNE 06:49:23 10° ENE visible
21 Nov 9.1 06:31:33 14° N 06:34:54 18° NNE 06:39:37 10° ENE visible
22 Nov 8.9 06:21:25 18° N 06:24:04 21° NNE 06:29:33 10° ENE visible
23 Nov 8.7 06:11:15 23° N 06:13:12 25° NNE 06:19:18 10° E visible
24 Nov 8.5 06:01:01 28° NNE 06:02:19 29° NNE 06:08:55 10° E visible
24 Nov 7.6 07:43:20 10° WNW 07:51:28 68° NNE 07:58:38 10° ESE visible
25 Nov 8.3 05:50:45 33° NNE 05:51:25 34° NNE 05:58:26 10° E visible
25 Nov 7.5 07:32:52 12° WNW 07:40:38 75° NNE 07:48:01 10° ESE visible
26 Nov 8.1 05:40:25 39° NNE 05:40:30 39° NNE 05:47:52 10° E visible
26 Nov 7.5 07:22:33 15° WNW 07:29:47 82° NNE 07:37:23 10° ESE visible
27 Nov 8.0 05:30:03 44° NE 05:30:03 44° NE 05:37:14 10° E visible
27 Nov 7.5 07:12:10 17° WNW 07:18:57 88° NNE 07:26:42 10° ESE visible
28 Nov 8.0 05:19:39 47° NE 05:19:39 47° NE 05:26:32 10° E visible
28 Nov 7.5 07:01:46 19° WNW 07:08:06 87° SSW 07:16:00 10° ESE visible
